Powrót do katalogu

STARLINK-11149

AktywnyŁącznośćVLEO
NORAD 60041·PAYLOAD·🇺🇸 United States

Wystrzelony Jun 8, 2024 z Vandenberg Space Force Base

Loading…

Następne Przeloty (najbliższe 24 godziny)

TLE

ŚwieżeSource: CelesTrak SupGP

Epoka: Sep 14, 2026, 21:42 UTC

1 60041C 24112D   26257.90465278  .00084321  00000+0  69444-3 0  2578
2 60041  53.1568  53.6676 0001091  81.4341  47.5896 15.69672292    15

Śledź STARLINK-11149 w czasie rzeczywistym z AllMySat

Download on the App Store